Project,Study,Ord_Occ,Event_Num,Cast_ID,Date_Time_UTC,Date_Time_PST,Lat_Dec,Lon_Dec,Sta_ID,Line,Sta,Depth,Pressure,PrQ,Temp1,Temp1Q,Temp2,Temp2Q,TempAve,Salt1,Salt1Q,Salt1_Corr,Salt2,Salt2Q,Salt2_Corr,SaltAve_Corr,Ox1,Ox1Q,Ox1_CruiseCorr,Ox1_StaCorr,Ox2,Ox2Q,Ox2_CruiseCorr,Ox2_StaCorr,OxAve_StaCorr,Ox1uM,Ox1uM_CruiseCorr,Ox1uM_StaCorr,Ox2uM,Ox2uM_CruiseCorr,Ox2uM_StaCorr,OxAveuM_StaCorr,FluorV,FluorQ,EstChl_CruiseCorr,EstChl_StaCorr,ISUSV,ISUSQ,EstNO3_CruiseCorr,EstNO3_StaCorr,SigThetaTS1,SigThetaTS1Q,SigThetaTS2,SigThetaTS2Q,BAT,XMiss,TransQ,pH,pHQ,SPAR,SPARQ,PAR,PARQ,PoT1,PoT2,DynHt,SVA,OxSat1,OxSat2,BTL_Depth,BTL_Temp,SaltB,OxB,OxBuM,Chl-a,Phaeo,NO3,NO2,NH4,PO4,SIL
CalCOFI,2105SH,026,,2105_026u,09-May-2021 18:04:30,09-May-2021 10:04:30,33.82648,-118.62428,086.7 035.0,086.7,035.0,512.000,516.315,,6.6322,,6.6318,,6.6320,34.3171,,34.3183,34.3176,,34.3195,34.3189,0.2865,,0.3657,0.4088,0.2934,,0.3633,0.4020,0.4054,12.457,15.5213,16.7197,12.757,18.5821,16.4401,16.5799,0.0355,,,,0.5930,,0.0000,,26.9371,,26.9375,,,,,,,,,,,6.5847,6.5843,0.8676,118.728,4.188,4.289,,,,,,,,,,,,
CalCOFI,2105SH,026,,2105_026u,09-May-2021 18:04:32,09-May-2021 10:04:32,33.82648,-118.62428,086.7 035.0,086.7,035.0,511.000,515.305,,6.6341,,6.6327,,6.6334,34.3169,,34.3181,34.3176,,34.3195,34.3188,0.2864,,0.3656,0.4087,0.2935,,0.3634,0.4021,0.4054,12.454,15.5182,16.7166,12.764,18.5789,16.4473,16.5820,0.0362,,,,0.5930,,0.0000,,26.9367,,26.9374,,,,,,,,,,,6.5867,6.5853,0.8676,118.753,4.188,4.291,511,6.634,34.3187,0.412,17.92,,,38.53,0.00,0.00,3.14,67.53
CalCOFI,2105SH,026,,2105_026u,09-May-2021 18:04:33,09-May-2021 10:04:33,33.82648,-118.62428,086.7 035.0,086.7,035.0,510.000,514.296,,6.6360,,6.6338,,6.6349,34.3168,,34.3180,34.3175,,34.3194,34.3187,0.2864,,0.3656,0.4087,0.3010,,0.3712,0.4097,0.4092,12.455,15.5193,16.7176,13.089,18.5799,16.7816,16.7496,0.0362,,,,0.5930,,0.0000,,26.9363,,26.9372,,,,,,,,,,,6.5886,6.5865,0.8676,118.774,4.188,4.401,,,,,,,,,,,,
CalCOFI,2105SH,026,,2105_026u,09-May-2021 18:04:34,09-May-2021 10:04:34,33.82648,-118.62428,086.7 035.0,086.7,035.0,509.000,513.286,,6.6371,,6.6381,,6.6376,34.3167,,34.3179,34.3174,,34.3193,34.3186,0.2885,,0.3678,0.4109,0.2969,,0.3669,0.4055,0.4082,12.548,15.6165,16.8143,12.914,18.6804,16.6016,16.7080,0.0362,,,,0.5931,,0.0000,,26.9360,,26.9365,,,,,,,,,,,6.5899,6.5909,0.8676,118.786,4.219,4.343,,,,,,,,,,,,
CalCOFI,2105SH,026,,2105_026u,09-May-2021 18:04:35,09-May-2021 10:04:35,33.82648,-118.62428,086.7 035.0,086.7,035.0,508.000,512.276,,6.6422,,6.6526,,6.6474,34.3163,,34.3175,34.3169,,34.3188,34.3182,0.2939,,0.3735,0.4165,0.2968,,0.3668,0.4054,0.4110,12.782,15.8611,17.0578,12.907,18.9331,16.5944,16.8261,0.0360,,,,0.5932,,0.0000,,26.9351,,26.9341,,,,,,,,,,,6.5951,6.6054,0.8676,118.867,4.299,4.342,,,,,,,,,,,,
CalCOFI,2105SH,026,,2105_026u,09-May-2021 18:04:36,09-May-2021 10:04:36,33.82648,-118.62428,086.7 035.0,086.7,035.0,507.000,511.267,,6.6488,,6.6507,,6.6498,34.3161,,34.3173,34.3173,,34.3192,34.3183,0.2919,,0.3714,0.4144,0.2964,,0.3664,0.4050,0.4097,12.697,15.7722,16.9694,12.890,18.8413,16.5769,16.7732,0.0371,,,,0.5932,,0.0000,,26.9340,,26.9347,,,,,,,,,,,6.6017,6.6036,0.8676,118.958,4.270,4.336,,,,,,,,,,,,
CalCOFI,2105SH,026,,2105_026u,09-May-2021 18:04:38,09-May-2021 10:04:38,33.82648,-118.62428,086.7 035.0,086.7,035.0,506.000,510.257,,6.6509,,6.6635,,6.6572,34.3161,,34.3173,34.3161,,34.3180,34.3177,0.2906,,0.3700,0.4131,0.2998,,0.3699,0.4085,0.4108,12.638,15.7106,16.9080,13.039,18.7776,16.7302,16.8191,0.0360,,,,0.5934,,0.0000,,26.9338,,26.9320,,,,,,,,,,,6.6039,6.6165,0.8676,118.970,4.251,4.387,,,,,,,,,,,,
CalCOFI,2105SH,026,,2105_026u,09-May-2021 18:04:39,09-May-2021 10:04:39,33.82648,-118.62428,086.7 035.0,086.7,035.0,505.000,509.247,,6.6545,,6.6748,,6.6647,34.3163,,34.3175,34.3151,,34.3170,34.3173,0.2906,,0.3700,0.4131,0.3045,,0.3748,0.4133,0.4132,12.638,15.7106,16.9080,13.243,18.7776,16.9400,16.9240,0.0359,,,,0.5936,,0.0000,,26.9334,,26.9297,,,,,,,,,,,6.6076,6.6278,0.8676,118.996,4.251,4.457,,,,,,,,,,,,
CalCOFI,2105SH,026,,2105_026u,09-May-2021 18:04:41,09-May-2021 10:04:41,33.82648,-118.62428,086.7 035.0,086.7,035.0,504.000,508.238,,6.6654,,6.6801,,6.6728,34.3156,,34.3168,34.3162,,34.3181,34.3175,0.2917,,0.3712,0.4142,0.3001,,0.3702,0.4088,0.4115,12.686,15.7607,16.9579,13.052,18.8294,16.7435,16.8507,0.0354,,,,0.5938,,0.0000,,26.9314,,26.9299,,,,,,,,,,,6.6186,6.6331,0.8676,119.177,4.269,4.393,,,,,,,,,,,,
CalCOFI,2105SH,026,,2105_026u,09-May-2021 18:04:42,09-May-2021 10:04:42,33.82648,-118.62428,086.7 035.0,086.7,035.0,503.000,507.228,,6.6756,,6.6871,,6.6814,34.3148,,34.3160,34.3164,,34.3183,34.3172,0.2995,,0.3793,0.4223,0.3023,,0.3725,0.4111,0.4167,13.023,16.1130,17.3085,13.146,19.1934,16.8402,17.0744,0.0359,,,,0.5940,,0.0000,,26.9294,,26.9291,,,,,,,,,,,6.6288,6.6403,0.8676,119.363,4.383,4.426,,,,,,,,,,,,
CalCOFI,2105SH,026,,2105_026u,09-May-2021 18:04:43,09-May-2021 10:04:43,33.82650,-118.62428,086.7 035.0,086.7,035.0,502.000,506.218,,6.6773,,6.6870,,6.6822,34.3171,,34.3183,34.3169,,34.3188,34.3186,0.2932,,0.3727,0.4158,0.2990,,0.3691,0.4077,0.4118,12.750,15.8277,17.0245,13.002,18.8985,16.6921,16.8583,0.0362,,,,0.5941,,0.0000,,26.9309,,26.9295,,,,,,,,,,,6.6306,6.6402,0.8676,119.205,4.291,4.377,,,,,,,,,,,,
CalCOFI,2105SH,026,,2105_026u,09-May-2021 18:04:44,09-May-2021 10:04:44,33.82650,-118.62428,086.7 035.0,086.7,035.0,501.000,505.209,,6.6690,,6.6908,,6.6799,34.3170,,34.3182,34.3166,,34.3185,34.3184,0.2943,,0.3739,0.4169,0.3022,,0.3724,0.4110,0.4140,12.798,15.8778,17.0744,13.141,18.9504,16.8351,16.9548,0.0361,,,,0.5943,,0.0000,,26.9320,,26.9287,,,,,,,,,,,6.6224,6.6442,0.8676,119.080,4.307,4.424,,,,,,,,,,,,
CalCOFI,2105SH,026,,2105_026u,09-May-2021 18:04:45,09-May-2021 10:04:45,33.82650,-118.62428,086.7 035.0,086.7,035.0,500.000,504.199,,6.6709,,6.6892,,6.6801,34.3160,,34.3172,34.3168,,34.3187,34.3180,0.2956,,0.3752,0.4183,0.3026,,0.3728,0.4114,0.4149,12.855,15.9374,17.1337,13.161,19.0119,16.8556,16.9947,0.0358,,,,0.5945,,0.0000,,26.9309,,26.9291,,,,,,,,,,,6.6244,6.6427,0.8676,119.168,4.326,4.431,,,,,,,,,,,,
CalCOFI,2105SH,026,,2105_026u,09-May-2021 18:04:47,09-May-2021 10:04:47,33.82650,-118.62428,086.7 035.0,086.7,035.0,499.000,503.189,,6.6804,,6.6894,,6.6849,34.3157,,34.3169,34.3163,,34.3182,34.3176,0.2946,,0.3742,0.4173,0.3060,,0.3764,0.4149,0.4161,12.809,15.8893,17.0859,13.306,18.9623,17.0048,17.0454,0.0362,,,,0.5947,,0.0000,,26.9294,,26.9286,,,,,,,,,,,6.6339,6.6430,0.8676,119.306,4.311,4.480,,,,,,,,,,,,
CalCOFI,2105SH,026,,2105_026u,09-May-2021 18:04:48,09-May-2021 10:04:48,33.82650,-118.62428,086.7 035.0,086.7,035.0,498.000,502.180,,6.6891,,6.6908,,6.6900,34.3159,,34.3171,34.3172,,34.3191,34.3181,0.2944,,0.3740,0.4170,0.3047,,0.3750,0.4135,0.4153,12.805,15.8851,17.0817,13.250,18.9579,16.9472,17.0145,0.0359,,,,0.5949,,0.0000,,26.9284,,26.9292,,,,,,,,,,,6.6427,6.6444,0.8676,119.397,4.311,4.461,,,,,,,,,,,,
CalCOFI,2105SH,026,,2105_026u,09-May-2021 18:04:49,09-May-2021 10:04:49,33.82650,-118.62428,086.7 035.0,086.7,035.0,497.000,501.170,,6.6949,,6.7070,,6.7010,34.3152,,34.3164,34.3167,,34.3186,34.3175,0.2944,,0.3740,0.4170,0.3056,,0.3759,0.4145,0.4158,12.801,15.8810,17.0776,13.289,18.9536,16.9873,17.0325,0.0359,,,,0.5950,,0.0000,,26.9270,,26.9266,,,,,,,,,,,6.6486,6.6607,0.8676,119.516,4.310,4.476,,,,,,,,,,,,
CalCOFI,2105SH,026,,2105_026u,09-May-2021 18:04:50,09-May-2021 10:04:50,33.82650,-118.62428,086.7 035.0,086.7,035.0,496.000,500.161,,6.7004,,6.7145,,6.7075,34.3156,,34.3168,34.3163,,34.3182,34.3175,0.2943,,0.3739,0.4169,0.3038,,0.3741,0.4126,0.4148,12.798,15.8778,17.0744,13.213,18.9504,16.9091,16.9918,0.0359,,,,0.5952,,0.0000,,26.9266,,26.9253,,,,,,,,,,,6.6542,6.6682,0.8676,119.547,4.310,4.451,,,,,,,,,,,,
CalCOFI,2105SH,026,,2105_026u,09-May-2021 18:04:51,09-May-2021 10:04:51,33.82650,-118.62428,086.7 035.0,086.7,035.0,495.000,499.151,,6.7000,,6.7161,,6.7081,34.3158,,34.3170,34.3158,,34.3177,34.3174,0.2951,,0.3747,0.4178,0.3038,,0.3741,0.4126,0.4152,12.835,15.9165,17.1129,13.210,18.9903,16.9060,17.0095,0.0361,,,,0.5954,,0.0000,,26.9268,,26.9246,,,,,,,,,,,6.6539,6.6699,0.8676,119.509,4.322,4.450,,,,,,,,,,,,
CalCOFI,2105SH,026,,2105_026u,09-May-2021 18:04:52,09-May-2021 10:04:52,33.82650,-118.62428,086.7 035.0,086.7,035.0,494.000,498.141,,6.7029,,6.7099,,6.7064,34.3156,,34.3168,34.3153,,34.3172,34.3170,0.2994,,0.3792,0.4222,0.3038,,0.3741,0.4126,0.4174,13.022,16.1120,17.3075,13.211,19.1923,16.9071,17.1073,0.0356,,,,0.5956,,0.0000,,26.9262,,26.9251,,,,,,,,,,,6.6568,6.6639,0.8676,119.553,4.385,4.450,,,,,,,,,,,,
CalCOFI,2105SH,026,,2105_026u,09-May-2021 18:04:54,09-May-2021 10:04:54,33.82651,-118.62428,086.7 035.0,086.7,035.0,493.000,497.132,,6.7113,,6.7202,,6.7158,34.3154,,34.3166,34.3164,,34.3183,34.3175,0.3023,,0.3822,0.4253,0.3113,,0.3818,0.4203,0.4228,13.149,16.2448,17.4396,13.536,19.3295,17.2413,17.3405,0.0364,,,,0.5959,,0.0000,,26.9250,,26.9246,,,,,,,,,,,6.6653,6.6742,0.8676,119.666,4.429,4.560,,,,,,,,,,,,
CalCOFI,2105SH,026,,2105_026u,09-May-2021 18:04:55,09-May-2021 10:04:55,33.82652,-118.62428,086.7 035.0,086.7,035.0,492.000,496.122,,6.7176,,6.7431,,6.7304,34.3152,,34.3164,34.3161,,34.3180,34.3172,0.2987,,0.3785,0.4215,0.3110,,0.3815,0.4200,0.4208,12.989,16.0775,17.2732,13.527,19.1567,17.2321,17.2527,0.0357,,,,0.5961,,0.0000,,26.9240,,26.9213,,,,,,,,,,,6.6717,6.6971,0.8676,119.754,4.376,4.560,,,,,,,,,,,,
CalCOFI,2105SH,026,,2105_026u,09-May-2021 18:04:56,09-May-2021 10:04:56,33.82652,-118.62426,086.7 035.0,086.7,035.0,491.000,495.113,,6.7486,,6.7694,,6.7590,34.3121,,34.3133,34.3146,,34.3165,34.3149,0.3012,,0.3811,0.4241,0.3124,,0.3830,0.4214,0.4228,13.099,16.1925,17.3876,13.587,19.2755,17.2938,17.3407,0.0358,,,,0.5963,,0.0000,,26.9173,,26.9165,,,,,,,,,,,6.7027,6.7234,0.8676,120.400,4.416,4.583,,,,,,,,,,,,
CalCOFI,2105SH,026,,2105_026u,09-May-2021 18:04:57,09-May-2021 10:04:57,33.82652,-118.62426,086.7 035.0,086.7,035.0,490.000,494.103,,6.7392,,6.7693,,6.7543,34.3156,,34.3168,34.3140,,34.3159,34.3164,0.3081,,0.3883,0.4313,0.3197,,0.3905,0.4289,0.4301,13.399,16.5061,17.6997,13.901,19.5995,17.6167,17.6582,0.0366,,,,0.5965,,0.0000,,26.9213,,26.9161,,,,,,,,,,,6.6934,6.7234,0.8676,119.993,4.516,4.688,,,,,,,,,,,,
CalCOFI,2105SH,026,,2105_026u,09-May-2021 18:04:58,09-May-2021 10:04:58,33.82652,-118.62426,086.7 035.0,086.7,035.0,489.000,493.093,,6.7430,,6.7654,,6.7542,34.3149,,34.3161,34.3145,,34.3164,34.3163,0.3053,,0.3854,0.4284,0.3135,,0.3841,0.4226,0.4255,13.275,16.3765,17.5707,13.636,19.4655,17.3442,17.4575,0.0368,,,,0.5967,,0.0000,,26.9203,,26.9169,,,,,,,,,,,6.6973,6.7196,0.8676,120.082,4.475,4.599,,,,,,,,,,,,
CalCOFI,2105SH,026,,2105_026u,09-May-2021 18:04:59,09-May-2021 10:04:59,33.82652,-118.62426,086.7 035.0,086.7,035.0,488.000,492.084,,6.7601,,6.7626,,6.7614,34.3132,,34.3144,34.3150,,34.3169,34.3157,0.3060,,0.3861,0.4291,0.3118,,0.3824,0.4208,0.4250,13.306,16.4089,17.6030,13.560,19.4990,17.2660,17.4345,0.0366,,,,0.5970,,0.0000,,26.9166,,26.9177,,,,,,,,,,,6.7144,6.7169,0.8676,120.431,4.487,4.573,,,,,,,,,,,,
CalCOFI,2105SH,026,,2105_026u,09-May-2021 18:05:00,09-May-2021 10:05:00,33.82652,-118.62426,086.7 035.0,086.7,035.0,487.000,491.074,,6.7694,,6.7786,,6.7740,34.3132,,34.3144,34.3145,,34.3164,34.3154,0.3121,,0.3925,0.4354,0.3120,,0.3826,0.4210,0.4282,13.574,16.6891,17.8818,13.568,19.7885,17.2742,17.5780,0.0356,,,,0.5972,,0.0000,,26.9154,,26.9151,,,,,,,,,,,6.7238,6.7330,0.8676,120.541,4.578,4.577,,,,,,,,,,,,
CalCOFI,2105SH,026,,2105_026u,09-May-2021 18:05:01,09-May-2021 10:05:01,33.82652,-118.62426,086.7 035.0,086.7,035.0,486.000,490.065,,6.7768,,6.7800,,6.7784,34.3133,,34.3145,34.3143,,34.3162,34.3154,0.3071,,0.3873,0.4303,0.3167,,0.3874,0.4258,0.4281,13.358,16.4633,17.6571,13.773,19.5552,17.4851,17.5711,0.0355,,,,0.5976,,0.0000,,26.9144,,26.9148,,,,,,,,,,,6.7313,6.7345,0.8676,120.626,4.506,4.646,,,,,,,,,,,,
CalCOFI,2105SH,026,,2105_026u,09-May-2021 18:05:02,09-May-2021 10:05:02,33.82652,-118.62426,086.7 035.0,086.7,035.0,485.000,489.055,,6.7796,,6.7826,,6.7811,34.3133,,34.3145,34.3140,,34.3159,34.3152,0.3069,,0.3871,0.4300,0.3190,,0.3898,0.4282,0.4291,13.345,16.4497,17.6435,13.875,19.5411,17.5900,17.6168,0.0354,,,,0.5979,,0.0000,,26.9140,,26.9142,,,,,,,,,,,6.7342,6.7371,0.8676,120.650,4.502,4.681,,,,,,,,,,,,
CalCOFI,2105SH,026,,2105_026u,09-May-2021 18:05:03,09-May-2021 10:05:03,33.82652,-118.62426,086.7 035.0,086.7,035.0,484.000,488.046,,6.7811,,6.7843,,6.7827,34.3130,,34.3142,34.3139,,34.3158,34.3150,0.3070,,0.3872,0.4301,0.3161,,0.3868,0.4252,0.4277,13.352,16.4570,17.6508,13.747,19.5487,17.4583,17.5546,0.0361,,,,0.5982,,0.0000,,26.9136,,26.9139,,,,,,,,,,,6.7358,6.7390,0.8676,120.678,4.505,4.638,,,,,,,,,,,,
CalCOFI,2105SH,026,,2105_026u,09-May-2021 18:05:05,09-May-2021 10:05:05,33.82652,-118.62426,086.7 035.0,086.7,035.0,483.000,487.036,,6.7830,,6.7851,,6.7841,34.3129,,34.3141,34.3137,,34.3156,34.3149,0.3073,,0.3875,0.4305,0.3155,,0.3862,0.4246,0.4276,13.366,16.4716,17.6654,13.722,19.5638,17.4326,17.5490,0.0363,,,,0.5985,,0.0000,,26.9132,,26.9136,,,,,,,,,,,6.7377,6.7399,0.8676,120.698,4.509,4.630,,,,,,,,,,,,
CalCOFI,2105SH,026,,2105_026u,09-May-2021 18:05:06,09-May-2021 10:05:06,33.82653,-118.62426,086.7 035.0,086.7,035.0,482.000,486.027,,6.7832,,6.7887,,6.7860,34.3129,,34.3141,34.3137,,34.3156,34.3149,0.3111,,0.3914,0.4344,0.3155,,0.3862,0.4246,0.4295,13.527,16.6399,17.8329,13.720,19.7377,17.4306,17.6318,0.0357,,,,0.5988,,0.0000,,26.9132,,26.9131,,,,,,,,,,,6.7380,6.7435,0.8676,120.682,4.564,4.629,,,,,,,,,,,,
CalCOFI,2105SH,026,,2105_026u,09-May-2021 18:05:07,09-May-2021 10:05:07,33.82654,-118.62426,086.7 035.0,086.7,035.0,481.000,485.017,,6.7843,,6.7908,,6.7876,34.3128,,34.3140,34.3135,,34.3154,34.3147,0.3127,,0.3931,0.4361,0.3154,,0.3861,0.4245,0.4303,13.600,16.7162,17.9088,13.717,19.8165,17.4275,17.6682,0.0358,,,,0.5990,,0.0000,,26.9130,,26.9127,,,,,,,,,,,6.7392,6.7457,0.8676,120.687,4.588,4.629,,,,,,,,,,,,
CalCOFI,2105SH,026,,2105_026u,09-May-2021 18:05:08,09-May-2021 10:05:08,33.82654,-118.62426,086.7 035.0,086.7,035.0,480.000,484.008,,6.7866,,6.7913,,6.7890,34.3123,,34.3135,34.3130,,34.3149,34.3142,0.3137,,0.3942,0.4371,0.3154,,0.3861,0.4245,0.4308,13.642,16.7601,17.9525,13.716,19.8619,17.4265,17.6895,0.0354,,,,0.5992,,0.0000,,26.9123,,26.9122,,,,,,,,,,,6.7416,6.7463,0.8676,120.745,4.603,4.628,,,,,,,,,,,,
CalCOFI,2105SH,026,,2105_026u,09-May-2021 18:05:09,09-May-2021 10:05:09,33.82654,-118.62426,086.7 035.0,086.7,035.0,479.000,482.998,,6.7874,,6.7915,,6.7895,34.3124,,34.3136,34.3133,,34.3152,34.3144,0.3110,,0.3913,0.4343,0.3183,,0.3891,0.4275,0.4309,13.525,16.6378,17.8308,13.844,19.7355,17.5581,17.6945,0.0362,,,,0.5995,,0.0000,,26.9122,,26.9123,,,,,,,,,,,6.7425,6.7465,0.8676,120.735,4.563,4.671,,,,,,,,,,,,
CalCOFI,2105SH,026,,2105_026u,09-May-2021 18:05:10,09-May-2021 10:05:10,33.82654,-118.62426,086.7 035.0,086.7,035.0,478.000,481.989,,6.7941,,6.7925,,6.7933,34.3115,,34.3127,34.3144,,34.3163,34.3145,0.3109,,0.3912,0.4342,0.3257,,0.3968,0.4350,0.4346,13.520,16.6326,17.8256,14.164,19.7301,17.8872,17.8564,0.0370,,,,0.5997,,0.0000,,26.9106,,26.9131,,,,,,,,,,,6.7493,6.7477,0.8676,120.880,4.562,4.780,,,,,,,,,,,,
CalCOFI,2105SH,026,,2105_026u,09-May-2021 18:05:11,09-May-2021 10:05:11,33.82654,-118.62426,086.7 035.0,086.7,035.0,477.000,480.979,,6.7904,,6.8071,,6.7988,34.3124,,34.3136,34.3106,,34.3125,34.3131,0.3114,,0.3918,0.4347,0.3237,,0.3947,0.4330,0.4339,13.544,16.6577,17.8506,14.078,19.7561,17.7988,17.8247,0.0357,,,,0.6001,,0.0000,,26.9118,,26.9081,,,,,,,,,,,6.7457,6.7623,0.8676,120.748,4.570,4.752,,,,,,,,,,,,
CalCOFI,2105SH,026,,2105_026u,09-May-2021 18:05:12,09-May-2021 10:05:12,33.82654,-118.62426,086.7 035.0,086.7,035.0,476.000,479.970,,6.8080,,6.8192,,6.8136,34.3111,,34.3123,34.3111,,34.3130,34.3127,0.3179,,0.3986,0.4415,0.3313,,0.4026,0.4408,0.4412,13.826,16.9525,18.1440,14.407,20.0606,18.1371,18.1406,0.0364,,,,0.6004,,0.0000,,26.9084,,26.9069,,,,,,,,,,,6.7633,6.7745,0.8676,121.073,4.667,4.865,,,,,,,,,,,,
CalCOFI,2105SH,026,,2105_026u,09-May-2021 18:05:13,09-May-2021 10:05:13,33.82654,-118.62426,086.7 035.0,086.7,035.0,475.000,478.960,,6.8168,,6.8565,,6.8367,34.3113,,34.3125,34.3118,,34.3137,34.3131,0.3189,,0.3996,0.4425,0.3332,,0.4045,0.4427,0.4426,13.871,16.9995,18.1908,14.493,20.1092,18.2256,18.2082,0.0359,,,,0.6009,,0.0000,,26.9073,,26.9024,,,,,,,,,,,6.7722,6.8118,0.8676,121.166,4.683,4.898,,,,,,,,,,,,
CalCOFI,2105SH,026,,2105_026u,09-May-2021 18:05:14,09-May-2021 10:05:14,33.82654,-118.62426,086.7 035.0,086.7,035.0,474.000,477.951,,6.8407,,6.8828,,6.8618,34.3083,,34.3095,34.3120,,34.3139,34.3117,0.3233,,0.4042,0.4471,0.3346,,0.4060,0.4442,0.4457,14.060,17.1971,18.3874,14.554,20.3133,18.2883,18.3379,0.0358,,,,0.6014,,0.0000,,26.9017,,26.8990,,,,,,,,,,,6.7961,6.8381,0.8676,121.702,4.750,4.921,,,,,,,,,,,,
CalCOFI,2105SH,026,,2105_026u,09-May-2021 18:05:15,09-May-2021 10:05:15,33.82656,-118.62426,086.7 035.0,086.7,035.0,473.000,476.941,,6.8615,,6.8918,,6.8767,34.3086,,34.3098,34.3107,,34.3126,34.3112,0.3213,,0.4021,0.4450,0.3421,,0.4137,0.4518,0.4484,13.975,17.1083,18.2990,14.876,20.2215,18.6195,18.4593,0.0357,,,,0.6020,,0.0000,,26.8992,,26.8968,,,,,,,,,,,6.8169,6.8471,0.8676,121.952,4.723,5.031,,,,,,,,,,,,
CalCOFI,2105SH,026,,2105_026u,09-May-2021 18:05:16,09-May-2021 10:05:16,33.82656,-118.62426,086.7 035.0,086.7,035.0,472.000,475.932,,6.8849,,6.9099,,6.8974,34.3043,,34.3055,34.3084,,34.3103,34.3079,0.3271,,0.4082,0.4510,0.3393,,0.4108,0.4490,0.4500,14.224,17.3686,18.5580,14.756,20.4905,18.4961,18.5271,0.0355,,,,0.6026,,0.0000,,26.8926,,26.8924,,,,,,,,,,,6.8404,6.8653,0.8676,122.580,4.810,4.993,,,,,,,,,,,,
CalCOFI,2105SH,026,,2105_026u,09-May-2021 18:05:18,09-May-2021 10:05:18,33.82656,-118.62426,086.7 035.0,086.7,035.0,471.000,474.922,,6.8762,,6.9232,,6.8997,34.3083,,34.3095,34.3089,,34.3108,34.3102,0.3312,,0.4125,0.4553,0.3379,,0.4094,0.4475,0.4514,14.406,17.5588,18.7474,14.695,20.6870,18.4334,18.5904,0.0365,,,,0.6032,,0.0000,,26.8969,,26.8910,,,,,,,,,,,6.8318,6.8786,0.8676,122.149,4.870,4.973,,,,,,,,,,,,
CalCOFI,2105SH,026,,2105_026u,09-May-2021 18:05:19,09-May-2021 10:05:19,33.82656,-118.62426,086.7 035.0,086.7,035.0,470.000,473.913,,6.9067,,6.9263,,6.9165,34.3063,,34.3075,34.3099,,34.3118,34.3097,0.3316,,0.4129,0.4557,0.3463,,0.4181,0.4561,0.4559,14.420,17.5735,18.7620,15.059,20.7021,18.8077,18.7849,0.0363,,,,0.6038,,0.0000,,26.8912,,26.8914,,,,,,,,,,,6.8622,6.8818,0.8676,122.704,4.879,5.097,,,,,,,,,,,,
CalCOFI,2105SH,026,,2105_026u,09-May-2021 18:05:20,09-May-2021 10:05:20,33.82656,-118.62426,086.7 035.0,086.7,035.0,469.000,472.903,,6.9074,,6.9156,,6.9115,34.3074,,34.3086,34.3060,,34.3079,34.3083,0.3319,,0.4132,0.4560,0.3412,,0.4128,0.4509,0.4535,14.436,17.5902,18.7786,14.838,20.7194,18.5804,18.6795,0.0361,,,,0.6044,,0.0000,,26.8919,,26.8897,,,,,,,,,,,6.8631,6.8712,0.8676,122.621,4.884,5.021,,,,,,,,,,,,
CalCOFI,2105SH,026,,2105_026u,09-May-2021 18:05:21,09-May-2021 10:05:21,33.82656,-118.62426,086.7 035.0,086.7,035.0,468.000,471.894,,6.9046,,6.9349,,6.9198,34.3095,,34.3107,34.3067,,34.3086,34.3097,0.3376,,0.4192,0.4620,0.3476,,0.4194,0.4575,0.4598,14.681,17.8463,19.0335,15.117,20.9840,18.8674,18.9505,0.0366,,,,0.6049,,0.0000,,26.8939,,26.8876,,,,,,,,,,,6.8604,6.8905,0.8676,122.414,4.967,5.118,,,,,,,,,,,,
CalCOFI,2105SH,026,,2105_026u,09-May-2021 18:05:22,09-May-2021 10:05:22,33.82656,-118.62426,086.7 035.0,086.7,035.0,467.000,470.884,,6.9190,,6.9444,,6.9317,34.3083,,34.3095,34.3077,,34.3096,34.3096,0.3325,,0.4138,0.4567,0.3469,,0.4187,0.4568,0.4568,14.462,17.6174,18.8056,15.086,20.7475,18.8355,18.8206,0.0366,,,,0.6055,,0.0000,,26.8911,,26.8871,,,,,,,,,,,6.8748,6.9001,0.8676,122.682,4.894,5.108,,,,,,,,,,,,
CalCOFI,2105SH,026,,2105_026u,09-May-2021 18:05:23,09-May-2021 10:05:23,33.82656,-118.62426,086.7 035.0,086.7,035.0,466.000,469.875,,6.9231,,6.9397,,6.9314,34.3071,,34.3083,34.3095,,34.3114,34.3099,0.3321,,0.4134,0.4562,0.3436,,0.4153,0.4534,0.4548,14.443,17.5975,18.7859,14.941,20.7270,18.6864,18.7362,0.0357,,,,0.6061,,0.0000,,26.8895,,26.8891,,,,,,,,,,,6.8790,6.8956,0.8676,122.816,4.888,5.058,,,,,,,,,,,,
CalCOFI,2105SH,026,,2105_026u,09-May-2021 18:05:24,09-May-2021 10:05:24,33.82656,-118.62426,086.7 035.0,086.7,035.0,465.000,468.865,,6.9218,,6.9379,,6.9299,34.3094,,34.3106,34.3061,,34.3080,34.3093,0.3362,,0.4177,0.4605,0.3507,,0.4227,0.4607,0.4606,14.620,17.7825,18.9700,15.252,20.9182,19.0062,18.9881,0.0354,,,,0.6067,,0.0000,,26.8915,,26.8867,,,,,,,,,,,6.8778,6.8938,0.8676,122.610,4.948,5.164,,,,,,,,,,,,
CalCOFI,2105SH,026,,2105_026u,09-May-2021 18:05:25,09-May-2021 10:05:25,33.82656,-118.62426,086.7 035.0,086.7,035.0,464.000,467.856,,6.9230,,6.9687,,6.9459,34.3077,,34.3089,34.3080,,34.3099,34.3094,0.3408,,0.4225,0.4653,0.3509,,0.4229,0.4609,0.4631,14.820,17.9916,19.1781,15.262,21.1342,19.0165,19.0973,0.0352,,,,0.6073,,0.0000,,26.8900,,26.8839,,,,,,,,,,,6.8791,6.9246,0.8676,122.736,5.016,5.171,,,,,,,,,,,,
CalCOFI,2105SH,026,,2105_026u,09-May-2021 18:05:26,09-May-2021 10:05:26,33.82658,-118.62426,086.7 035.0,086.7,035.0,463.000,466.846,,6.9548,,6.9666,,6.9607,34.3072,,34.3084,34.3094,,34.3113,34.3099,0.3444,,0.4263,0.4690,0.3584,,0.4306,0.4685,0.4688,14.976,18.1547,19.3404,15.588,21.3026,19.3518,19.3461,0.0354,,,,0.6081,,0.0000,,26.8853,,26.8853,,,,,,,,,,,6.9109,6.9226,0.8676,123.201,5.072,5.281,,,,,,,,,,,,
CalCOFI,2105SH,026,,2105_026u,09-May-2021 18:05:28,09-May-2021 10:05:28,33.82658,-118.62426,086.7 035.0,086.7,035.0,462.000,465.837,,6.9705,,6.9908,,6.9807,34.3055,,34.3067,34.3053,,34.3072,34.3070,0.3478,,0.4298,0.4726,0.3650,,0.4375,0.4753,0.4740,15.127,18.3126,19.4975,15.875,21.4657,19.6470,19.5723,0.0358,,,,0.6089,,0.0000,,26.8817,,26.8788,,,,,,,,,,,6.9266,6.9468,0.8676,123.534,5.125,5.381,,,,,,,,,,,,
CalCOFI,2105SH,026,,2105_026u,09-May-2021 18:05:29,09-May-2021 10:05:29,33.82658,-118.62426,086.7 035.0,086.7,035.0,461.000,464.827,,7.0001,,7.0450,,7.0226,34.3045,,34.3057,34.3056,,34.3075,34.3066,0.3550,,0.4374,0.4801,0.3653,,0.4378,0.4756,0.4779,15.439,18.6387,19.8221,15.887,21.8027,19.6593,19.7407,0.0363,,,,0.6095,,0.0000,,26.8769,,26.8716,,,,,,,,,,,6.9562,7.0010,0.8676,124.009,5.234,5.392,,,,,,,,,,,,
CalCOFI,2105SH,026,,2105_026u,09-May-2021 18:05:30,09-May-2021 10:05:30,33.82658,-118.62426,086.7 035.0,086.7,035.0,460.000,463.818,,7.0203,,7.0519,,7.0361,34.3056,,34.3068,34.3049,,34.3068,34.3068,0.3517,,0.4339,0.4766,0.3593,,0.4316,0.4695,0.4731,15.297,18.4903,19.6744,15.625,21.6493,19.3899,19.5322,0.0358,,,,0.6101,,0.0000,,26.8750,,26.8701,,,,,,,,,,,6.9764,7.0079,0.8676,124.191,5.189,5.304,,,,,,,,,,,,
CalCOFI,2105SH,026,,2105_026u,09-May-2021 18:05:31,09-May-2021 10:05:31,33.82658,-118.62426,086.7 035.0,086.7,035.0,459.000,462.809,,6.9994,,7.0521,,7.0258,34.3100,,34.3112,34.3033,,34.3052,34.3082,0.3511,,0.4333,0.4760,0.3628,,0.4352,0.4731,0.4746,15.271,18.4631,19.6473,15.780,21.6212,19.5493,19.5983,0.0350,,,,0.6107,,0.0000,,26.8812,,26.8688,,,,,,,,,,,6.9557,7.0082,0.8676,123.564,5.177,5.356,,,,,,,,,,,,
CalCOFI,2105SH,026,,2105_026u,09-May-2021 18:05:32,09-May-2021 10:05:32,33.82658,-118.62426,086.7 035.0,086.7,035.0,458.000,461.799,,7.0265,,7.0207,,7.0236,34.3024,,34.3036,34.3055,,34.3074,34.3055,0.3578,,0.4403,0.4830,0.3687,,0.4413,0.4791,0.4811,15.561,18.7663,19.9490,16.036,21.9344,19.8126,19.8808,0.0362,,,,0.6112,,0.0000,,26.8716,,26.8748,,,,,,,,,,,6.9828,6.9771,0.8676,124.485,5.279,5.439,,,,,,,,,,,,
CalCOFI,2105SH,026,,2105_026u,09-May-2021 18:05:33,09-May-2021 10:05:33,33.82658,-118.62425,086.7 035.0,086.7,035.0,457.000,460.790,,7.0377,,7.0413,,7.0395,34.3050,,34.3062,34.3054,,34.3073,34.3068,0.3563,,0.4387,0.4814,0.3675,,0.4401,0.4779,0.4797,15.494,18.6962,19.8793,15.984,21.8621,19.7591,19.8192,0.0360,,,,0.6118,,0.0000,,26.8721,,26.8719,,,,,,,,,,,6.9941,6.9976,0.8676,124.437,5.257,5.424,,,,,,,,,,,,